997  
ASUS41 KBOX 232010  
RWRBOX  
 
REGIONAL WEATHER ROUNDUP  
NATIONAL WEATHER SERVICE BOSTON/NORTON MA  
400 PM EDT TUE APR 23 2019  
 
NOTE: "FAIR" INDICATES FEW OR NO CLOUDS BELOW 12,000 FEET WITH NO  
SIGNIFICANT WEATHER AND/OR S TO VISIBILITY
.  
 
MAZALL-232100-  
EASTERN MASSACHUSETTS  
 
CITY SKY/WX TMP DP RH WIND PRES REMARKS
 
BOSTON CLOUDY 49 44 83 E12 29.92S  
BEVERLY CLOUDY 50 44 80 E6 29.90S  
LAWRENCE CLOUDY 54 47 77 E7 29.91F  
BEDFORD CLOUDY 59 48 67 CALM 29.88F  
BLUE HILL N/A 49 47 93 E9 29.89S  
NORWOOD CLOUDY 55 47 74 E9 29.90F  
MARSHFIELD CLOUDY 48 45 87 E5 29.93R  
PLYMOUTH CLOUDY 48 44 86 NE9 29.92F  
TAUNTON CLOUDY 55 48 77 NE5 29.91S  
NEW BEDFORD CLOUDY 54 50 86 E8 29.90F  

 
 
MAZALL-232100-  
CAPE COD AND THE ISLANDS  
 
CITY SKY/WX TMP DP RH WIND PRES REMARKS
 
FALMOUTH CLOUDY 48 45 87 N12 29.92R  
HYANNIS CLOUDY 52 44 74 N13G21 29.89F  
CHATHAM CLOUDY 49 44 83 VRB3 29.92S  
PROVINCETOWN CLOUDY 46 44 93 NE10 29.92F  
NANTUCKET PTSUNNY 51 44 77 N20G26 29.90F  
MARTHAS VNYRD CLOUDY 52 44 74 N10 29.92R  

 
 
MAZALL-232100-  
CENTRAL AND WESTERN MASSACHUSETTS  
 
CITY SKY/WX TMP DP RH WIND PRES REMARKS
 
WORCESTER FAIR 60 51 72 NE5 29.87F  
FITCHBURG FAIR 61 49 64 SW3 29.88F  
ORANGE FAIR 70 50 49 CALM 29.84F  
SPRINGFIELD MOSUNNY 74 49 41 SW10 29.81F  
WESTFIELD FAIR 73 50 44 SE8 29.81F  
NORTH ADAMS FAIR 73 43 33 CALM 29.81F  
PITTSFIELD FAIR 72 42 34 W7 29.82F  

 
 
RIZALL-232100-  
RHODE ISLAND  
 
CITY SKY/WX TMP DP RH WIND PRES REMARKS
 
PROVIDENCE FAIR 62 51 67 E7 29.89F  
NEWPORT PTSUNNY 59 51 75 E5 29.89F  
BLOCK ISLAND FAIR 56 51 84 S9 29.91F  
SMITHFIELD CLOUDY 60 51 72 NE5 29.89S  
WESTERLY FAIR 58 53 84 SE12 29.91F  

 
 
CTZALL-232100-  
CONNECTICUT  
 
CITY SKY/WX TMP DP RH WIND PRES REMARKS
 
BRADLEY INTL FAIR 74 51 44 S13 29.82F  
HARTFORD FAIR 72 51 47 SE8 29.83F  
BRIDGEPORT FAIR 68 49 50 S5 29.86F  
DANBURY FAIR 74 45 35 VRB5 29.85F  
GROTON FAIR 59 51 75 SE12 29.89F  
NEW HAVEN FAIR 70 48 45 S10 29.86F  
CHESTER FAIR 70 50 49 S9G16 29.88F  
MERIDEN FAIR 69 47 45 S15G21 29.85F  
WILLIMANTIC FAIR 71 48 43 NW5 29.85F  
OXFORD FAIR 73 47 39 W3 29.86F  

 
 
MEZ002-015-021-024-NHZ003-005-008-011-012-014-VTZ005-008-232100-  
NORTHERN NEW ENGLAND  
 
CITY SKY/WX TMP DP RH WIND PRES REMARKS
 
PORTLAND ME CLOUDY 47 41 80 N12 29.92F  
BANGOR ME CLOUDY 44 41 89 N14 29.92F  
CONCORD NH PTSUNNY 58 46 64 VRB5 29.86F  
MANCHESTER NH PTSUNNY 61 48 62 NE7 29.86F  
NASHUA NH CLOUDY 61 50 67 E3 29.87F  
PORTSMOUTH NH CLOUDY 51 44 75 E8 29.88F  
JAFFREY NH FAIR 64 50 60 CALM 29.85F  
KEENE NH FAIR 69 50 50 CALM 29.83F  
BURLINGTON VT FAIR 68 41 37 W7 29.80F  
MT. WASHINGTON PTSUNNY 41 37 87 N15 N/A  

 
 
NYZ052-076-232100-  
EASTERN NEW YORK  
 
CITY SKY/WX TMP DP RH WIND PRES REMARKS
 
ALBANY PTSUNNY 73 44 35 SE7 29.81F  
NEW YORK CITY PTSUNNY 68 47 46 S16 29.86F  

 
 
ANZALL-232100-  
MARINE OBSERVATIONS  
 
STATION/POSITION TIME TEMP WIND PRES VSBY WAVE
 
AIR SEA DIR/SP/G HT/PER  
(UTC) (F) (DEG/KT/KT) (MB) (MI) (FT/S)  
BOSTON BUOY 1950 44 44 30/ 10/ 12 1012.5F 4/ 7  
BUZZARDS BAY NOT AVBL  
NANTUCKET SOUND 1950 48 50 10/ 14/ 16 1012.9F 2/ 3  
MASS BAY-STELLWA 1904 43 42 50/ 12/ 16 1011.9F 1 7/8 5/ 8  
ISLE OF SHOALS 1900 44 50/ 13/ 15 1012.7F  
S OF BLOCK IS 1930 49 N/A 4/ 9  

 
   
.....................KEY......................
 
 
SKY/WX - SKY CONDITION/PRESENT WEATHER  
TMP - TEMPERATURE IN FAHRENHEIT  
DWPT - DEWPOINT IN FAHRENHEIT  
RH - RELATIVE HUMIDITY IN PERCENT  
WIND - DIRECTION AND SPEED IN MPH  
PRES - MEAN SEA LEVEL PRESSURE IN INCHES OF HG  
WCI - WIND CHILL INDEX  
VSB - VISIBILITY IN MILES  
HX - HEAT INDEX  
TC - TEMPERATURE IN CELSIUS  
VRB - VARIABLE WIND DIRECTION  
N/A - NOT AVAILABLE  
 
 
CLICK HERE TO GO TO PREVIOUS BULLETINS.

The Nexlab MA Page
The Nexlab RI Page
The Nexlab NH Page
The Nexlab CT Page Main Text Page